Theta_e
334 333 334 334 334 335 335 333 331 330 330 331 332 333 333 333 333 333 332 332 333 332 331 329 327 327 326 326 326 326 326 325 324 324 323 323 323 323 322 321 320 318 318 318 318 318 319 322 323 322 323 325 326 327 331 334 334 334 334 333 331 329
335 334 334 334 335 336 336 334 333 331 330 330 332 332 333 333 332 332 332 332 331 330 329 326 327 328 326 327 327 326 326 325 324 324 323 323 323 323 323 322 321 320 318 318 318 319 321 323 324 324 325 326 326 326 329 334 335 333 333 330 328 327
335 334 334 334 334 336 336 334 332 330 328 329 331 331 332 332 332 333 331 331 330 329 328 326 328 330 329 330 329 328 327 326 326 325 324 324 324 323 323 322 321 320 319 318 318 320 322 324 324 325 325 325 326 327 329 333 334 333 332 330 329 328
335 334 334 334 334 335 335 333 330 329 327 328 330 332 333 333 334 332 330 330 330 329 329 328 329 331 332 331 330 329 328 328 327 326 325 325 324 323 322 322 321 321 321 322 323 324 327 330 328 326 325 325 329 332 332 332 332 333 332 329 330 328
336 334 334 334 334 335 334 332 331 329 327 328 331 333 333 334 334 330 328 330 330 330 329 328 329 331 331 331 330 330 329 329 328 328 327 326 326 325 323 322 322 322 326 329 328 328 331 332 332 329 327 329 332 334 335 333 331 332 331 329 329 327
336 335 334 335 334 335 334 333 332 329 328 330 332 333 333 335 334 329 328 330 329 329 329 328 330 330 331 331 331 330 330 330 329 329 329 328 329 329 327 327 326 326 329 332 331 331 332 332 332 331 330 333 335 335 335 333 332 332 332 331 330 328
336 336 335 335 334 334 334 333 332 330 329 331 332 332 333 333 333 330 328 328 328 328 328 329 331 331 331 331 331 331 331 330 329 329 330 329 330 330 329 329 330 330 332 333 332 332 332 332 332 331 331 333 335 334 334 333 332 333 333 333 331 330
336 336 335 335 335 333 333 333 332 331 331 331 332 333 332 332 332 330 327 327 328 328 328 329 330 331 331 330 330 331 331 331 330 329 330 330 329 329 328 328 330 331 332 332 332 331 331 331 330 330 330 331 332 333 334 333 333 332 332 332 331 330
336 336 334 335 334 333 333 334 333 333 333 332 333 332 331 331 332 330 327 327 325 326 330 332 331 330 331 331 330 330 330 330 330 329 330 329 329 330 329 327 329 330 330 330 329 330 330 330 330 330 330 330 331 332 333 332 332 332 332 331 331 330
337 335 333 334 334 334 334 334 334 333 333 332 332 331 330 331 331 330 327 326 325 325 330 332 331 330 331 331 330 329 330 330 330 330 329 329 329 330 328 328 328 328 327 327 327 328 329 329 329 328 329 329 330 330 332 331 330 332 332 331 331 330
337 334 333 334 335 335 335 334 334 333 332 331 331 330 330 331 329 328 327 326 326 327 328 330 329 330 332 332 329 328 329 329 330 330 329 329 328 328 328 328 327 326 325 326 328 329 329 329 329 329 328 328 329 329 331 331 330 332 332 331 332 331
337 334 334 335 335 335 334 333 333 332 332 330 331 331 330 330 328 328 327 326 326 327 329 331 331 331 332 332 330 330 329 328 328 328 328 328 328 329 329 328 326 326 326 327 328 329 329 329 329 330 328 327 329 329 329 331 331 331 331 331 332 331
337 335 336 336 335 334 333 332 330 329 330 330 332 332 329 328 328 329 329 327 328 330 330 331 332 331 331 331 331 331 330 329 328 328 327 327 327 328 329 328 327 327 328 328 327 327 328 329 329 330 329 327 328 328 329 330 329 329 331 331 332 331
337 335 335 335 335 335 333 331 330 329 328 330 332 330 326 326 328 329 329 328 330 331 329 330 330 330 330 330 330 330 330 329 329 329 328 327 327 326 327 328 328 328 328 327 327 326 327 328 329 329 329 328 328 328 328 328 328 329 330 331 331 330
335 333 333 333 333 331 329 331 332 330 327 327 330 329 326 328 330 330 329 330 331 330 330 330 330 330 330 329 329 330 329 330 330 329 328 327 326 326 327 328 328 328 328 328 328 328 328 328 328 329 329 328 328 328 328 328 328 328 329 329 328 328
333 333 333 332 330 327 327 331 332 330 329 327 330 331 329 330 332 332 330 330 329 328 329 330 329 330 330 329 330 330 330 330 330 329 329 327 326 326 327 327 328 328 328 329 328 327 327 326 327 328 329 329 328 327 328 328 327 327 327 327 326 326
332 331 332 330 328 326 326 328 326 328 330 328 330 332 330 331 333 332 330 328 326 327 329 329 329 329 330 330 330 330 331 330 330 329 329 328 327 327 327 327 327 328 329 328 327 327 327 326 328 329 329 330 329 326 326 326 329 329 328 328 326 324
331 330 330 328 325 325 326 324 322 326 330 329 330 331 331 332 331 331 331 327 326 327 328 329 330 330 330 330 329 329 329 329 329 329 328 328 328 327 327 327 327 327 327 326 326 328 328 328 329 329 329 329 328 326 325 327 329 329 327 328 328 326
330 330 329 326 324 324 326 326 325 329 331 331 331 330 331 330 329 330 331 328 328 328 328 328 329 329 329 329 329 329 328 328 328 328 327 327 327 327 327 327 327 327 326 326 326 328 329 329 329 328 328 328 327 326 326 326 327 327 326 326 327 327
329 330 328 325 325 326 325 326 328 330 330 330 330 330 330 329 328 328 327 327 328 327 326 328 328 328 328 327 327 328 328 328 328 328 327 327 327 327 328 328 327 326 326 326 327 328 327 327 328 328 328 328 328 326 327 326 324 326 326 326 326 326
329 329 326 324 326 326 323 326 330 329 329 330 329 329 329 328 328 328 328 327 325 322 322 325 326 326 327 327 327 327 328 328 328 328 328 327 327 328 328 329 328 327 328 327 327 328 327 327 328 328 328 329 327 326 327 326 324 325 327 326 326 325
328 327 324 324 326 324 323 328 330 328 329 328 327 329 329 328 326 325 326 324 321 320 319 318 318 321 325 325 324 326 327 328 328 327 328 328 328 328 328 328 328 328 328 327 328 328 328 328 327 328 328 328 328 326 327 327 325 325 326 326 326 326
327 324 323 326 328 326 325 328 329 329 328 327 328 330 328 327 323 320 321 320 318 321 323 321 319 322 325 322 321 323 323 325 326 325 327 328 327 327 327 327 327 328 328 328 328 328 328 327 327 328 327 328 328 327 327 327 326 325 325 325 326 327
326 323 324 328 328 327 326 328 329 329 328 329 330 327 323 323 322 322 322 318 316 323 326 325 324 326 324 317 320 324 321 321 322 323 326 327 326 327 327 327 327 327 328 328 328 328 328 327 328 328 328 328 328 327 328 327 326 326 325 325 325 326
324 324 327 328 328 326 326 328 328 328 330 329 325 323 321 321 322 323 320 316 320 325 325 324 325 326 321 315 317 323 324 323 321 323 325 326 327 327 327 327 327 327 326 326 327 328 327 327 328 328 328 328 328 328 328 328 327 326 325 326 327 326
322 323 326 326 326 324 323 325 327 329 328 322 319 323 323 322 323 324 322 322 325 326 325 324 325 324 321 319 318 320 325 326 322 322 324 324 327 327 327 328 327 326 326 325 326 327 328 327 327 327 328 328 328 328 328 327 328 327 326 326 327 327
321 323 324 324 324 321 319 320 323 325 322 321 324 326 324 324 325 323 321 322 322 323 324 324 323 321 320 321 320 320 323 325 324 323 322 322 324 324 324 326 327 326 326 325 324 326 327 326 326 327 327 327 327 327 326 327 328 328 327 327 326 326
323 323 322 322 321 319 315 312 316 321 323 327 329 326 324 324 322 317 316 318 319 322 324 323 323 324 323 322 321 320 321 324 324 323 324 323 321 320 321 324 326 325 325 324 324 325 325 326 326 326 326 326 326 325 324 326 327 327 327 326 326 326
324 321 321 321 319 317 312 309 317 325 328 330 327 322 321 320 316 316 319 321 323 325 324 324 324 324 324 323 321 322 322 323 324 323 324 323 320 321 322 323 323 323 324 324 323 324 325 326 326 325 326 326 325 325 324 325 326 326 326 326 325 325
323 320 320 319 319 315 311 314 323 329 329 328 324 320 320 316 314 320 323 322 322 323 323 323 323 323 324 324 324 324 322 320 322 322 323 322 322 322 322 321 320 322 324 324 324 324 325 325 325 325 325 325 326 325 325 325 325 326 326 325 325 324
322 322 320 319 319 314 313 322 328 329 328 325 321 320 319 313 313 318 321 321 321 323 323 320 319 319 320 320 320 321 320 320 321 322 323 323 323 323 321 319 317 320 323 324 324 325 325 325 325 325 325 325 325 325 324 324 324 325 326 325 324 323
322 322 320 321 321 316 320 327 328 328 327 321 319 318 313 311 314 318 321 323 324 323 320 316 312 312 314 315 316 316 317 319 321 323 322 322 321 321 320 318 315 316 320 322 323 324 324 325 324 324 324 324 325 324 324 324 323 324 324 324 323 322
322 321 321 324 324 321 325 328 327 327 321 315 317 314 310 313 319 320 322 325 325 322 320 315 310 310 313 315 315 314 312 313 317 320 321 320 319 319 318 317 313 312 314 317 320 321 322 323 324 323 323 323 324 324 324 324 323 324 323 323 323 322
321 322 324 326 325 323 326 327 325 322 313 311 314 312 313 319 321 321 322 324 324 322 321 316 310 311 313 311 310 309 307 308 311 314 317 318 318 318 317 313 310 308 308 309 311 314 318 321 322 322 322 322 322 322 323 324 324 323 323 322 322 321
321 322 325 326 323 322 324 323 320 316 310 309 311 312 317 321 321 321 321 322 323 323 321 315 310 310 310 307 306 306 306 306 307 309 312 315 315 315 313 308 306 306 306 306 306 309 315 319 319 319 319 319 319 320 321 322 323 323 322 322 322 320
323 322 324 325 323 321 321 319 318 316 313 312 313 316 321 321 320 320 320 322 322 322 320 313 308 308 306 306 306 305 306 306 306 307 309 311 310 309 308 306 306 306 306 306 306 307 311 314 315 316 316 316 316 317 319 321 321 321 321 320 320 320
325 324 324 324 322 321 320 319 319 318 317 319 320 321 322 319 317 318 320 322 321 321 318 310 306 306 305 305 305 305 305 305 305 306 308 308 306 305 305 305 305 305 305 306 305 305 306 308 311 313 314 312 312 313 315 319 321 321 320 320 319 319
Wind_Speed
24 22 22 24 22 19 18 18 18 17 15 15 15 15 15 14 14 13 12 10 10 10 9 9 8 7 7 6 6 5 5 5 5 4 3 3 2 1 1 1 1 2 4 5 6 7 8 8 8 8 9 11 12 13 14 11 8 11 10 10 8 7
22 22 24 23 21 20 19 18 18 17 15 15 15 15 15 16 15 14 13 12 11 10 9 10 9 8 7 6 5 5 5 5 5 4 4 3 2 2 1 2 1 1 3 5 6 7 8 8 7 7 9 10 11 12 12 9 8 12 12 11 7 5
22 23 24 22 20 19 18 18 16 16 16 15 16 15 16 17 16 15 13 12 11 10 10 9 9 8 7 6 6 5 5 5 5 4 4 4 3 2 1 1 1 1 2 4 6 7 6 3 3 6 8 9 10 9 9 9 8 10 11 10 7 5
23 24 22 20 19 19 19 17 16 16 16 16 17 16 16 16 16 16 14 12 11 10 9 9 9 8 7 6 6 6 6 5 5 4 4 3 3 3 2 1 0 1 1 3 6 7 5 2 5 3 6 8 8 6 6 8 8 9 11 9 7 5
23 23 21 20 20 20 19 17 17 17 17 17 17 16 16 15 15 14 13 13 11 9 9 9 9 8 7 6 7 6 6 5 5 5 4 3 3 3 2 1 0 2 2 4 7 8 7 5 9 5 6 7 4 5 7 8 9 11 13 9 6 5
21 22 21 21 21 20 19 17 17 18 19 18 17 16 15 13 13 14 12 11 10 10 10 9 9 8 7 6 6 5 5 6 5 5 4 4 3 2 3 2 2 1 1 3 5 5 6 6 8 7 6 7 7 8 10 11 11 14 14 9 7 6
21 22 20 20 21 20 19 17 17 17 18 17 15 14 13 13 13 14 12 9 9 10 10 9 9 10 9 7 7 6 6 6 6 5 4 5 4 4 4 4 5 4 4 4 3 3 3 5 7 7 7 7 8 8 11 13 13 13 12 10 9 7
22 23 22 20 20 21 19 17 18 16 16 16 14 13 13 12 11 12 11 9 9 9 10 10 11 10 9 8 8 7 7 7 7 7 6 7 6 6 6 5 6 7 9 8 6 5 6 7 8 8 7 7 7 9 12 13 11 12 11 10 10 8
22 23 23 21 20 20 18 18 19 16 15 15 13 12 12 11 10 10 10 10 10 10 11 12 11 10 8 9 9 8 8 8 9 9 7 7 8 7 6 7 7 7 9 8 7 6 6 8 7 6 7 7 8 10 13 11 10 13 12 11 10 9
22 23 22 21 20 19 18 17 18 16 14 13 12 11 11 10 10 9 9 10 11 12 13 12 10 10 10 10 10 9 8 7 8 8 8 8 8 8 7 7 7 7 7 6 7 6 5 6 7 7 7 6 8 11 13 13 12 12 11 12 10 8
24 23 21 20 20 18 18 17 16 16 14 13 11 10 10 9 8 8 10 11 11 12 14 12 10 11 10 10 10 8 8 7 8 8 9 8 6 7 8 8 7 6 6 5 6 5 5 7 7 8 9 7 10 12 13 12 12 12 11 11 9 8
23 22 21 19 19 18 17 16 14 14 14 13 11 9 8 9 9 10 11 11 11 12 13 12 12 12 10 8 8 7 8 8 9 9 8 7 5 6 8 9 8 6 6 6 6 7 7 7 8 10 10 9 7 8 12 11 11 11 10 11 9 7
19 20 18 18 17 16 16 14 12 12 11 11 10 8 7 9 10 10 11 11 11 12 11 10 11 11 9 8 7 8 9 9 9 9 8 8 7 7 9 9 7 6 5 6 8 9 9 7 8 10 9 9 4 4 11 9 9 9 8 11 10 7
17 17 15 15 15 14 13 11 10 11 9 9 9 8 7 8 8 9 10 11 10 10 9 8 8 8 8 7 7 7 8 9 9 9 9 9 9 9 9 9 7 6 5 6 8 9 8 7 7 7 7 7 2 4 8 3 4 5 5 7 6 6
18 17 14 14 13 12 12 9 10 10 7 7 8 7 6 7 8 9 9 9 8 9 8 7 6 6 7 7 6 6 7 8 8 9 9 9 9 9 10 10 8 7 6 6 7 7 7 6 6 6 6 6 4 4 11 7 4 3 2 3 3 5
18 17 15 16 16 13 13 11 11 10 7 6 7 5 5 7 7 6 5 6 7 7 7 6 5 6 7 7 6 5 6 6 6 7 8 8 9 8 9 10 8 7 7 5 5 6 5 6 5 4 4 4 6 4 12 9 2 4 0 2 2 6
19 16 15 17 17 13 12 11 10 10 7 6 6 4 4 5 6 4 4 5 6 6 6 5 5 5 6 6 5 5 5 5 6 7 7 7 7 6 8 9 7 6 5 4 5 5 5 5 5 4 4 1 3 6 7 5 1 2 3 2 1 4
19 16 15 15 15 14 12 9 9 9 7 6 6 7 5 3 3 4 5 5 6 6 6 5 5 4 5 6 5 5 5 4 6 6 6 6 5 5 6 7 6 4 3 4 4 4 4 4 4 4 3 1 2 3 4 3 3 3 2 2 2 3
18 17 16 16 16 16 14 11 11 10 8 7 7 7 6 3 3 4 4 5 6 6 6 6 5 4 3 3 3 3 3 3 5 6 5 5 4 4 5 5 5 4 3 3 3 3 3 2 2 3 2 2 0 3 3 3 2 1 2 2 2 2
18 17 17 18 18 17 15 14 13 11 9 7 7 8 5 3 6 6 4 4 6 6 5 6 5 5 4 3 3 1 2 3 3 4 3 4 4 4 4 5 4 4 3 2 3 3 3 2 1 2 2 2 1 2 2 2 1 1 2 2 3 4
18 17 17 19 18 17 15 15 13 11 10 7 7 8 7 7 7 7 7 4 4 5 5 5 5 5 4 4 4 4 3 2 2 3 2 3 4 4 3 3 3 3 3 4 4 3 3 2 0 1 3 2 1 2 2 2 3 2 2 2 2 4
17 17 19 19 17 16 16 15 12 10 9 5 6 8 8 9 8 9 9 5 4 5 4 5 5 4 4 3 3 4 4 3 3 3 2 2 2 2 2 2 2 3 4 4 4 3 3 2 1 1 2 3 2 3 2 2 3 3 3 2 2 4
16 18 20 20 17 16 16 15 12 10 9 8 10 10 8 7 5 6 6 4 5 7 7 7 7 6 3 2 4 3 3 3 2 3 3 2 2 3 2 1 1 2 3 4 4 3 2 2 2 2 2 2 3 4 3 3 3 4 5 4 3 5
16 19 20 19 17 16 16 15 13 12 11 12 13 10 8 8 7 8 6 4 6 9 8 7 7 5 1 2 4 4 4 4 3 2 2 2 3 4 3 3 4 2 2 2 2 2 2 1 3 4 4 3 3 3 3 4 5 4 4 5 5 4
16 19 19 18 17 15 14 14 13 13 12 11 11 8 8 8 7 6 6 6 7 7 7 8 7 4 2 3 5 6 6 5 3 3 3 2 2 4 4 4 5 4 3 1 1 1 1 1 3 3 4 4 3 2 3 5 6 5 4 5 7 7
19 20 19 18 17 14 13 12 12 12 12 9 8 9 7 7 7 6 6 7 8 7 7 7 6 4 5 5 5 9 8 3 3 4 4 3 4 6 5 3 4 4 3 2 2 2 1 2 4 3 3 4 3 3 5 6 6 7 7 7 9 9
22 22 20 20 19 15 13 11 10 10 9 7 8 8 8 7 8 7 6 7 7 7 7 6 5 4 5 6 6 8 10 8 7 6 5 4 5 7 5 4 5 5 4 4 4 3 2 3 3 3 3 3 3 5 6 6 7 7 9 9 9 8
24 22 22 21 19 17 14 12 11 9 8 7 8 9 9 9 8 7 5 5 6 7 7 6 6 6 5 5 5 6 10 13 9 5 5 4 3 6 6 6 6 6 5 5 5 4 4 5 3 4 4 2 2 5 6 6 8 8 9 12 12 10
23 22 23 21 19 18 16 14 13 11 9 9 10 9 9 8 7 6 7 7 8 7 7 7 7 7 7 6 6 5 9 13 12 8 4 3 4 7 8 7 7 8 8 7 6 5 5 7 6 6 7 6 4 5 7 8 9 9 12 15 14 13
23 23 24 23 22 20 18 16 13 12 11 11 10 9 8 8 7 8 8 9 9 7 7 8 8 9 10 9 6 4 5 9 12 11 7 6 8 8 7 9 9 10 10 9 9 8 7 7 7 7 7 7 6 5 6 7 8 10 13 14 15 15
26 25 25 25 24 22 19 18 15 13 13 12 11 11 9 8 8 8 8 7 7 6 6 6 6 8 9 9 9 6 6 9 11 11 10 9 8 7 7 9 10 11 12 11 11 10 10 9 8 9 9 8 7 6 6 7 7 10 12 14 17 19
29 27 26 25 23 22 20 19 17 16 16 14 13 11 10 9 8 8 8 7 6 6 4 3 4 5 7 7 6 6 8 10 11 12 13 11 9 8 7 9 9 10 11 12 11 12 15 14 12 12 13 12 10 9 10 10 10 12 13 15 19 20
30 28 26 23 22 22 22 20 18 18 17 16 13 11 10 9 9 8 9 8 6 5 3 3 4 6 8 8 9 8 8 9 10 12 13 13 10 8 8 9 9 9 9 10 10 12 15 17 16 15 14 14 13 13 13 13 14 15 15 16 18 18
29 27 24 23 23 23 24 22 20 18 17 15 13 11 10 10 9 9 9 8 6 6 5 5 6 8 7 8 8 8 8 9 9 10 12 14 13 11 9 10 10 10 11 10 9 10 14 17 18 16 14 15 15 15 14 13 14 16 17 16 16 16
28 27 24 24 25 24 24 23 21 20 17 16 14 12 11 10 9 9 9 9 7 7 8 7 7 7 6 6 7 7 7 9 10 11 11 12 13 12 10 11 13 13 13 13 12 12 14 17 18 16 14 15 16 16 14 12 12 14 16 16 16 15
27 28 27 27 28 26 24 23 22 21 18 16 14 13 11 10 10 10 10 10 9 9 9 8 7 6 5 5 5 5 6 7 8 9 9 9 10 10 10 11 12 12 13 13 13 14 15 16 18 16 14 13 16 17 16 15 15 14 13 13 13 12
27 29 29 29 29 27 25 23 22 21 19 17 15 14 12 11 12 12 11 10 10 11 10 8 7 6 5 6 5 5 6 6 7 8 8 8 9 9 10 10 10 11 12 12 12 13 14 15 16 15 13 13 14 15 14 15 17 16 14 12 9 8
Wind_Direction
169 168 175 174 167 163 164 166 169 172 174 181 184 181 180 181 175 163 152 155 167 169 169 168 170 177 181 179 175 179 177 179 183 180 181 173 172 186 196 207 196 175 168 188 199 192 194 199 200 191 181 170 156 152 136 122 165 186 208 227 226 236
175 173 176 176 172 169 167 169 170 170 173 178 180 181 182 183 176 162 153 160 170 172 173 172 172 178 184 187 187 194 199 194 192 190 190 192 199 212 228 228 207 184 162 173 192 190 189 195 201 194 180 173 166 166 153 138 181 197 213 236 239 244
179 177 175 175 177 174 170 169 171 170 169 174 180 184 187 185 174 159 154 160 169 169 170 174 174 178 188 200 202 208 217 211 209 207 201 198 208 231 248 252 198 182 168 164 181 181 167 170 204 199 191 175 169 174 164 153 181 213 227 239 244 252
181 179 176 177 180 179 172 169 173 171 167 174 181 184 189 186 169 154 153 160 167 167 171 182 178 182 194 204 210 211 221 223 222 226 225 218 212 239 260 303 331 97 132 143 161 161 139 308 293 223 195 174 159 170 180 176 183 225 243 243 241 247
182 180 176 177 181 177 169 170 173 172 169 173 180 181 187 184 161 147 152 161 167 171 184 190 180 189 201 206 214 209 222 224 224 233 236 244 230 241 264 262 281 80 107 125 133 138 141 237 272 266 199 174 174 194 194 198 194 222 246 252 244 244
182 181 176 174 178 174 168 171 172 172 169 171 176 175 181 178 156 145 154 166 173 182 191 190 179 190 201 213 218 206 223 222 227 240 234 254 249 251 274 270 265 160 157 137 126 139 155 211 243 262 236 195 207 205 193 200 202 220 241 250 249 251
181 180 178 176 177 173 169 169 170 172 170 171 173 172 178 175 161 152 156 169 176 179 184 192 193 193 195 214 228 220 232 230 229 236 231 244 244 256 267 273 273 252 237 231 201 192 221 228 209 234 251 221 211 198 198 208 210 222 233 239 250 257
178 174 175 179 176 171 170 169 167 168 171 174 172 174 177 170 170 162 158 168 174 176 182 196 202 198 198 213 227 226 232 230 225 228 229 232 237 253 251 251 261 263 265 257 247 233 222 219 208 221 239 228 223 211 208 210 219 229 225 230 244 252
176 168 171 176 171 170 170 168 166 167 173 176 171 173 173 169 183 178 168 183 195 199 197 199 204 207 214 219 219 219 224 223 226 234 229 220 231 245 237 238 249 261 271 272 279 274 231 211 203 218 241 235 226 226 220 208 220 233 225 228 238 245
177 168 171 169 166 169 168 168 167 169 171 170 169 169 168 177 193 190 187 203 209 213 211 207 211 215 217 221 224 227 230 224 227 235 232 228 234 240 236 238 248 253 258 270 284 292 281 234 197 191 226 244 232 238 238 216 211 222 223 227 228 232
173 168 170 169 168 168 167 169 167 168 168 163 166 167 170 181 196 204 206 212 217 221 221 217 219 219 213 223 233 232 232 231 229 228 234 245 239 236 240 236 242 244 241 253 259 260 260 241 216 196 198 222 235 239 244 224 209 216 221 226 223 219
165 162 168 168 167 166 167 168 163 166 168 166 164 164 175 185 196 206 208 217 223 218 215 213 213 215 215 225 235 229 226 233 237 235 241 253 240 230 233 231 236 239 231 232 236 242 243 229 221 212 197 205 221 234 244 229 210 216 215 218 219 200
157 157 162 159 159 161 158 158 161 165 170 170 164 167 185 189 193 201 209 222 221 209 211 214 214 221 222 216 218 217 216 222 230 237 243 243 237 233 228 230 244 245 231 223 227 232 235 231 219 212 202 201 198 259 257 236 211 217 203 202 201 164
152 153 154 148 147 144 137 142 158 160 159 161 164 178 192 193 195 199 210 218 211 210 223 219 211 221 222 206 205 210 208 211 218 227 233 229 228 234 233 236 242 236 231 225 224 223 227 238 229 217 208 203 211 325 297 275 181 204 187 169 164 145
151 153 155 148 136 129 133 139 152 156 152 155 166 181 189 191 198 198 195 192 187 201 215 210 201 203 206 205 203 206 210 210 215 220 221 219 222 228 226 228 233 231 233 225 220 224 230 236 239 236 217 209 224 344 350 358 89 90 207 171 153 174
146 146 147 146 139 136 146 147 146 156 164 162 161 166 176 179 185 189 170 154 158 174 183 185 190 187 186 194 193 196 208 206 207 212 214 215 220 221 213 217 226 228 231 232 227 231 236 237 240 232 207 221 239 288 354 350 34 45 88 196 188 184
141 139 134 141 146 144 145 145 142 147 158 152 135 122 139 158 163 163 142 133 138 149 158 160 171 173 166 175 182 187 196 203 205 204 206 212 214 212 208 213 225 233 238 244 244 240 243 246 240 218 197 225 264 262 334 345 252 47 93 126 74 158
142 141 135 141 149 146 139 139 138 133 132 120 97 93 117 150 158 147 135 123 120 128 133 135 150 159 161 170 178 190 196 196 200 199 198 202 207 207 205 213 227 241 243 242 253 253 253 248 219 203 213 242 323 300 331 28 61 40 78 135 114 138
147 143 141 145 144 141 136 130 125 117 117 118 110 122 153 180 136 126 128 124 117 115 118 118 121 128 141 162 170 205 217 183 187 196 192 196 206 203 204 216 229 231 226 235 251 249 243 240 210 194 204 237 303 28 30 44 40 343 262 211 179 177
149 147 145 148 142 137 132 120 113 114 125 136 140 142 144 95 81 79 74 99 117 112 115 116 111 111 111 118 128 157 195 184 196 195 184 197 208 202 200 210 217 217 216 230 237 235 228 228 252 188 164 195 242 44 65 73 73 215 246 237 191 181
149 151 147 144 136 130 126 117 117 129 138 152 149 138 133 127 123 116 110 109 114 111 112 113 107 106 108 105 100 97 114 148 173 174 184 199 209 216 209 204 206 200 198 216 226 230 224 213 185 174 174 178 237 249 223 110 99 133 193 202 179 180
151 151 143 138 133 129 124 116 118 127 131 141 140 141 155 162 165 156 151 158 127 107 99 100 94 93 103 105 98 97 94 90 100 102 124 172 186 203 212 223 230 212 198 207 213 212 227 221 177 190 181 171 204 226 211 127 107 114 127 125 130 155
153 149 142 137 135 133 126 120 123 132 140 146 151 160 160 146 140 137 143 161 130 102 77 65 61 72 95 84 70 68 68 75 82 70 78 122 108 94 87 66 166 210 203 207 212 211 238 225 154 151 171 178 203 203 171 156 152 117 104 106 122 135
153 148 144 140 137 135 128 129 142 154 164 169 171 174 149 125 117 115 121 132 124 109 100 98 88 87 127 112 91 67 36 44 67 65 61 75 73 75 76 75 70 82 150 192 218 215 260 229 141 137 148 158 176 176 143 145 154 124 103 109 107 107
155 151 147 140 140 143 138 144 160 167 178 188 179 160 129 115 108 113 119 109 109 107 110 123 120 112 98 113 129 106 61 29 52 86 78 71 62 61 62 76 75 73 93 106 151 181 263 211 171 161 146 146 162 171 131 139 139 116 103 98 88 89
157 155 149 144 147 152 148 151 170 179 185 183 152 135 123 113 112 122 119 111 123 122 114 124 128 129 120 116 130 125 112 71 44 73 88 112 104 77 55 54 74 82 89 78 96 126 104 135 176 185 166 165 157 143 134 137 134 116 111 103 92 94
159 158 153 153 153 156 150 147 172 184 174 151 136 145 144 139 155 166 157 145 145 132 122 123 104 88 104 113 125 137 128 98 57 39 43 69 104 103 94 80 71 71 85 78 73 91 107 115 149 157 164 190 150 140 140 132 134 130 119 109 102 99
162 159 158 157 153 156 151 149 168 164 146 151 166 172 162 163 182 177 146 119 108 108 110 103 95 90 89 98 102 117 119 107 90 59 42 42 92 106 102 95 82 75 85 87 78 93 117 114 129 129 117 115 145 173 174 147 138 136 126 118 107 98
161 159 159 156 154 160 158 157 160 147 154 186 188 178 168 172 172 139 115 117 123 131 133 128 126 119 100 81 70 84 120 127 123 119 105 53 72 95 97 91 89 90 95 100 97 104 117 116 121 119 111 115 132 162 169 155 145 136 131 127 117 105
164 163 160 158 161 163 161 160 154 153 181 194 179 166 168 171 160 143 146 158 157 152 152 151 147 138 126 123 129 122 125 135 131 125 110 70 65 83 98 94 91 95 98 99 102 109 118 119 119 113 113 125 129 137 154 155 150 140 135 133 125 117
170 168 164 164 164 162 162 160 156 171 189 183 168 167 174 173 161 156 157 155 152 153 164 171 166 160 152 152 165 152 106 116 127 123 113 101 91 89 96 99 93 93 95 93 96 103 107 109 118 115 107 112 115 113 124 132 145 148 141 134 126 121
174 172 167 165 165 163 163 159 162 181 186 176 173 175 176 168 156 153 145 141 157 168 173 177 162 151 142 135 135 122 114 122 127 125 119 113 107 100 101 104 98 92 95 96 99 103 103 102 102 100 94 97 105 101 103 114 131 142 141 135 128 122
174 171 167 167 169 167 162 159 169 184 183 176 176 175 168 159 154 153 150 156 170 165 163 167 144 130 129 128 120 114 121 129 131 132 126 113 102 97 104 111 108 104 105 106 109 111 110 105 98 94 90 89 92 95 104 112 121 131 136 133 127 123
174 172 169 171 174 173 168 166 171 179 179 175 171 166 160 155 157 161 160 163 166 169 184 180 149 137 136 139 134 124 117 114 120 130 131 125 118 111 109 112 110 109 109 108 108 111 115 114 109 106 107 103 96 91 97 103 113 128 133 129 126 128
178 177 176 178 179 179 177 175 173 172 174 175 170 161 158 159 162 167 165 160 168 191 198 185 165 160 155 144 134 128 119 111 111 115 120 127 128 123 115 110 108 108 109 107 102 104 113 117 112 108 111 117 116 109 103 100 107 121 128 131 133 133
184 183 182 183 184 181 179 181 177 169 168 172 167 156 160 171 171 170 166 163 180 199 200 192 185 180 166 147 138 136 131 121 115 113 113 116 120 119 113 110 110 110 110 108 105 104 110 115 111 105 105 112 121 122 119 119 121 121 124 130 131 129
189 189 188 186 185 182 181 183 179 168 164 166 159 153 168 183 176 170 168 171 185 197 204 202 193 189 176 156 147 137 125 122 119 112 108 106 107 109 109 109 108 107 108 108 109 108 110 113 109 105 106 109 115 119 122 129 131 129 128 130 130 117